Regional Weather Roundup
Issued by NWS Pendleton, OR

Home | Current Version | Previous Version | Text Only | Print | Product List | Glossary On
Versions: 1 2 3 4 5 6 7 8 9 10 11 12 13 14 15 16 17 18 19 20 21 22 23 24 25 26 27 28 29 30 31 32 33 34 35 36 37 38 39 40 41 42 43 44 45 46 47 48 49 50
914
ASUS46 KPDT 140710
RWRPDT
PENDLETON REGIONAL WEATHER ROUNDUP
NATIONAL WEATHER SERVICE PENDLETON OREGON
1100 PM PST SAT FEB 13 2016

NOTE: FAIR INDICATES FEW OR NO CLOUDS BELOW 12,000 FEET WITH NO
SIGNIFICANT WEATHER AND/OR OBSTRUCTIONS TO VISIBILITY.

# INDICATES UNOFFICIAL STATION AND DATA

WAZ520-140810-
EAST SLOPES OF WASHINGTON CASCADES

CITY            SKY/WX      TMP DP  RH  WIND    PRES   REMARKS
#BUMPING DAM    N/A         34  N/A N/A S2      N/A
#CLE ELUM HS    N/A         33  32  96  CALM    30.04F
#CLE ELUM 2NW   N/A         33  32  96  CALM    N/A
#CLE ELUM LAKE  N/A         32  32  100 CALM    30.11R
#CLIFFDEL 2NW   N/A         35  34  96  N5      N/A
#GLENWOOD       N/A         40  37  89  S1      30.17F
#MANASTASH CYN  N/A         33  30  89  CALM    30.02S
#NELSON         N/A         N/A N/A N/A CALM    30.03F
#NELSON 3SW     N/A         32  31  96  CALM    30.32S
#NILE           N/A         32  31  96  CALM    29.39S
#PEOH POINT     N/A         30  30  100 S13     N/A    WCI 20
#RONALD 2NW     N/A         33  N/A N/A CALM    29.93S
#SNOWDEN        N/A         37  34  89  CALM    N/A
#TEANAWAY 4NE   N/A         33  33  100 CALM    N/A
#TROUT LAKE 1NE N/A         36  35  96  N5      30.20F
#TROUT LAKE 1E  N/A         35  35  100 CALM    30.13S
$$

WAZ521-140810-
SIMCOE HIGHLANDS

CITY            SKY/WX      TMP DP  RH  WIND    PRES   REMARKS
#BICKLETON HS   N/A         39  32  76  W22G32  N/A    WCI 29
#SATUS PASS DOT N/A         38  32  79  N1      N/A
#CENTERVILLE 1SWN/A         37  34  89  CALM    30.14F
#GOLDENDALE     N/A         40  38  92  W7      N/A
#GOLDENDALE 1NE N/A         39  32  76  SW2     N/A
#GOODNOE HILLS  N/A         43  36  76  W18     30.04F WCI 35
#LYLE 6NE       N/A         40  38  92  CALM    30.15F
$$

WAZ026-140810-
KITTITAS VALLEY

CITY            SKY/WX      TMP DP  RH  WIND    PRES   REMARKS
ELLENSBURG AP   MOCLDY      35  31  85  N3      30.06F
#ELLENSBURG CWU N/A         35  33  92  NW3     30.07F
#ELLENSBURG 3NE N/A         33  32  96  CALM    30.06F
#ELLENSBURG     N/A         37  37  100 W1      N/A
#KITTITAS 4N    N/A         31  28  88  CALM    30.10F
#KITTITAS 3S    N/A         33  32  96  CALM    30.11F
#THORP 6N       N/A         33  32  96  N7      30.12F
$$

WAZ027-140810-
YAKIMA VALLEY

CITY            SKY/WX      TMP DP  RH  WIND    PRES   REMARKS
SUNNYSIDE AP    CLOUDY      42  36  79  E6      30.09F
YAKIMA AIRPORT  CLOUDY      35  31  85  N5      30.09F
YAKIMA-VAGABOND MOCLEAR     37  33  85  NW2     30.06S
#DONALD 2NE     N/A         45  26  47  S1      28.94F
#GRANDVIEW      N/A         45  36  70  S3      30.11F
#MABTON         N/A         48  40  74  S9      30.10F
#MOXEE 2E       N/A         40  27  59  NE5     30.06S
#NACHES 2SW     N/A         37  35  92  CALM    30.05F
#TERRACE HTS    N/A         40  35  82  CALM    30.06F
#TOPPENISH      N/A         47  37  68  SW2     30.00F
#WEST VALLEY    N/A         37  34  89  CALM    30.08F
#W YAKIMA       N/A         40  36  85  E1      30.13S
#WHITE SWAN 5E  N/A         46  37  71  W15     30.09F WCI 40
#WILEY CITY 3W  N/A         34  30  85  CALM    30.04F
$$

WAZ028-140810-
LOWER COLUMBIA BASIN...WASHINGTON

CITY            SKY/WX      TMP DP  RH  WIND    PRES   REMARKS
PASCO           CLOUDY      46  39  76  S13     30.14F WCI 40
PROSSER AWOS    N/A         45  37  73  S16     30.13F WCI 38
RICHLAND AWOS   PTCLDY      47  40  76  S14     30.11F WCI 41
#BENTON CITY    N/A         44  39  82  S17G33  30.03S WCI 36
#CONNELL 5N     N/A         41  39  93  S6      30.11F
#ELTOPIA 6NW    N/A         42  40  93  S5      29.09F
#KAHLOTUS       N/A         43  40  89  SW14G24 30.12F WCI 36
#KENNEWICK 3S   N/A         44  40  86  S7      30.14F
#PATERSON       N/A         45  41  86  CALM    30.14F
#PROSSER DOT    N/A         45  39  79  S15     N/A    WCI 38
#PROSSER        N/A         42  37  82  S15G24  30.11F WCI 34
#SAGEMOOR 2W    N/A         42  40  93  S6      29.99S
#TOUCHET 2S     N/A         47  42  83  S7      30.14F
#WEST PASCO     N/A         46  40  79  S2      30.14F
$$

WAZ029-140810-
FOOTHILLS OF THE BLUES...WASHINGTON

CITY            SKY/WX      TMP DP  RH  WIND    PRES   REMARKS
WALLA WALLA AP  CLOUDY      45  39  79  S12     30.15F WCI 39
#CLYDE 6NW      N/A         42  40  93  S9      30.15F
#DAYTON SCHOOL  N/A         44  35  70  SW7     30.14F
#DELANEY DOT    N/A         45  38  76  SE2     N/A
#LOWDEN 2SE     N/A         45  42  89  S1      30.13F
#PLEASANT VIEW 1N/A         40  39  96  S15     30.17F WCI 32
#PRESCOTT       N/A         44  41  89  CALM    30.15F
#WHITMAN COLLEGEN/A         46  41  83  N1      30.22F
#WAITSBURG 5S   N/A         43  39  86  S10     30.26F
#WAITSBURG 8N   N/A         41  24  50  S14     30.03R WCI 33
#WALLA WALLA U  N/A         47  42  83  SE2     30.17F
#WHITMAN MISSIONN/A         45  42  89  CALM    30.18F
$$

WAZ030-140810-
BLUE MOUNTAINS...WASHINGTON

CITY            SKY/WX      TMP DP  RH  WIND    PRES   REMARKS
#DIXIE 5SE      N/A         40  36  85  S17G26  30.05F WCI 31
#SKI BLUEWOOD   N/A         34  31  89  SE5     30.08S
$$

ORZ009-041-WAZ024-140810-
COLUMBIA RIVER GORGE

CITY            SKY/WX      TMP DP  RH  WIND    PRES   REMARKS
HOOD RIVER AP   RAIN        43  41  93  CALM    30.19F
THE DALLES AP   MOCLDY      44  40  86  CALM    30.18F
#ARLINGTON AIRPON/A         43  39  86  SW3     30.17F
#ARLINGTON HS   N/A         46  39  76  W3      30.08F
#CELILO DOT     N/A         44  38  79  SW2     N/A
#LYLE           N/A         44  42  93  N1      30.20F
#MARYHILL       N/A         43  38  82  CALM    N/A
#MARYHILL 2W    N/A         42  42  100 S5      N/A
#MOSIER 1S      N/A         41  37  86  CALM    30.17F
#MURDOCK        N/A         44  42  93  NW3     30.15F
#RUFUS DOT      N/A         47  40  76  NE2     N/A

$$

ORZ510-140810-
NORTH CENTRAL OREGON

CITY            SKY/WX      TMP DP  RH  WIND    PRES   REMARKS
#CHENOWITH 1W   N/A         38  38  100 SW2     N/A
#COW CYN RST AREN/A         42  36  79  SW6     N/A
#DUFUR 9E       N/A         38  36  92  S2      30.21F
#GRASS VALLEY 1SN/A         40  36  85  SW20G26 30.19F WCI 30
#KENT DOT       N/A         39  33  79  N8      N/A
#MAUPIN SCHOOL  N/A         45  39  79  CALM    30.20F
#SHANIKO 4NW    N/A         38  35  89  SW3     30.16R
#TYGH VALLEY 2NEN/A         48  38  68  SW17    30.18F WCI 42
#WAPANITIA AIRPON/A         41  37  86  CALM    30.22S
#WASCO DOT      N/A         40  37  89  CALM    N/A
#WASCO 5NE      N/A         38  36  92  CALM    30.17F
$$

ORZ511-140810-
CENTRAL OREGON

CITY            SKY/WX      TMP DP  RH  WIND    PRES   REMARKS
BEND AIRPORT    CLOUDY      45  36  70  SW13    30.20R WCI 39
MADRAS AIRPORT  CLOUDY      48  36  63  SW15    30.20S WCI 42
PRINEVILLE AP   LGT MXD PCP 43  36  76  NE3     30.22R
REDMOND AIRPORT CLOUDY      42  33  70  NE5     30.21R
#ASHWOOD SCHOOL N/A         43  39  86  CALM    30.14S
#BEND 6E        N/A         45  33  63  CALM    30.18S
#BEND 1SW       N/A         42  36  79  NW3     N/A
#BEND-KIM LN    N/A         44  36  73  SW5     30.17R
#LAKE BILLY CHINN/A         46  N/A N/A S10     30.23S
#MADRAS         N/A         48  35  60  SW14    N/A    WCI 42
#POWELL BUTTE 3EN/A         44  34  68  E1      N/A
#PRINEVILLE 3N  N/A         43  36  76  SE1     30.25R
#WARM SPRINGS   N/A         46  37  71  CALM    30.15S

$$


ORZ509-140810-
EAST SLOPES OF OREGON CASCADES

CITY            SKY/WX      TMP DP  RH  WIND    PRES   REMARKS
SISTERS AWOS    N/A         46  37  71  SW12G25 30.15R WCI 40
#BLUE BOX PASS  N/A         34  N/A N/A NW7     N/A
#BLACK BUTTE RNCN/A         42  39  89  SW1     30.24R
#CAMP SHERMAN   N/A         39  35  85  CALM    30.31R
#LA PINE DOT    N/A         39  31  73  S3      N/A
#LA PINE 4NW    N/A         37  31  79  CALM    30.34R
#SISTERS AIRPOR N/A         47  42  83  N5      30.17S
#SISTERS ODOT   N/A         47  N/A N/A S8      N/A
#SISTERS 3N     N/A         43  32  65  W3      30.18R
#SUNRIVER       N/A         39  35  85  S3      30.30R
#SUTTLE LK DOT  N/A         N/A N/A N/A SE1     N/A
#TUMALO 3W      N/A         42  34  73  SE3     30.12R
#WANOGA BUTTE D N/A         33  33  100 CALM    N/A

$$

ORZ044-140810-
LOWER COLUMBIA BASIN...OREGON

CITY            SKY/WX      TMP DP  RH  WIND    PRES   REMARKS
HERMISTON       MOCLDY      44  41  89  S5      30.15F
#BOARDMAN SCHOOLN/A         44  42  93  N1      30.17F
#BOARDMAN 8SW   N/A         44  41  89  SW6     30.15F
#ECHO 8SW       N/A         43  42  96  CALM    30.16F
#I-84 EX 198 DOTN/A         44  40  86  NE6     N/A
#IONE SCHOOL    N/A         44  28  53  SW7     30.11F
#IRRIGON 4NW    N/A         45  45  100 S1      N/A
#UMATILLA SCHOOLN/A         42  42  100 CALM    30.16F
#UMATILLA       N/A         45  40  82  SE3     30.10F
$$

ORZ507-140810-
NORTHERN FOOTHILLS OF THE BLUES

CITY            SKY/WX      TMP DP  RH  WIND    PRES   REMARKS
PENDLETON AIRPT CLOUDY      43  40  89  SE8     30.14F
#ADAMS 3WNW     N/A         41  40  96  CALM    30.18F
#ATHENA         N/A         44  39  82  S3      30.20F
#CAYUSE         N/A         46  40  79  E1      30.16F
#HELIX SCHOOL   N/A         41  40  96  N8      30.16F
#HELIX 3N       N/A         41  40  96  S15     30.10F WCI 33
#HOLDMAN 5SE    N/A         43  41  93  S3      30.13F
#HOLDMAN 6E     N/A         42  40  93  NW7     29.97F
#M-F GROVE ELEM N/A         46  37  71  S5      30.12F
#M-FREEWATER 5SEN/A         46  39  76  CALM    30.14F
#PENDLETON DNTN N/A         44  38  79  CALM    30.19S
#PDT AQUATIC CTRN/A         44  36  73  CALM    30.16S
#PDT SUNRIDGE   N/A         43  41  93  CALM    30.17F
#PENDLETON 7NW  N/A         43  39  86  CALM    32.08S
#PILOT ROCK     N/A         47  36  65  S9      30.15F
#TUTUILLA       N/A         44  41  89  CALM    30.17F
#UMAPINE 2E     N/A         46  42  86  SE2     30.13F
#WESTON SCHOOL  N/A         43  36  76  SW9     30.11F

$$

ORZ508-140810-
SOUTHERN FOOTHILLS OF THE BLUES

CITY            SKY/WX      TMP DP  RH  WIND    PRES   REMARKS
#CONDON SCHOOL  N/A         41  38  89  SW8     30.09F
#FOSSIL SCHOOL  N/A         43  38  82  E2      30.12R
#HEPPNER EOC    N/A         46  39  76  SW5     30.11F
#HEPPNER 4NE    N/A         42  37  82  S6      30.17F
#LEXINGTON 2SE  N/A         48  40  74  S3      30.12F
#MIKKALO        N/A         41  37  86  W6      30.23F
#OLEX 4N        N/A         42  39  89  W7      30.13F
#RUGGS 5NE      N/A         42  38  86  S15     30.30S WCI 34
#RUGGS 2SW      N/A         43  37  79  SW16G24 30.16F WCI 35

$$

ORZ502-503-140810-
BLUE MOUNTAINS

CITY            SKY/WX      TMP DP  RH  WIND    PRES   REMARKS
MEACHAM         LGT RAIN    34  32  92  CALM    30.14F
#BATTLE MTN DOT N/A         33  33  100 S3      N/A
#HEPPNER 15SE   N/A         36  28  72  N5      30.30S
#LADD CYN SMT   N/A         35  30  82  SE13    N/A    WCI 26
#LADD CREEK ODOTN/A         35  34  96  SW3     N/A
#LONG CREEK HS  N/A         41  39  93  CALM    N/A
#N POWDER DOT   N/A         37  35  92  SE7     N/A
#PIKES PEAK     N/A         39  34  82  SW25G40 27.99S WCI 28
#TOLLGATE       N/A         31  30  96  SW5     29.96S
#TROY SCHOOL    N/A         40  38  92  CALM    30.04F
#UKIAH          N/A         37  35  92  CALM    30.15S
#WESTON 4E      N/A         37  35  92  SE12    30.16F WCI 29
$$

ORZ505-140810-
JOHN DAY BASIN

CITY            SKY/WX      TMP DP  RH  WIND    PRES   REMARKS
JOHN DAY        LGT RAIN    42  36  79  W6      30.21R
#DAYVILLE SCHOOLN/A         44  37  76  CALM    30.16R
#MITCHELL       N/A         44  39  82  CALM    30.35R
#MITCHELL 8NW   N/A         42  34  73  SW5     30.42R
#MONUMENT HS    N/A         43  38  82  N5      30.12R
#MT. VERNON 5SE N/A         41  34  76  SW3     30.15R
#WINLOCK        N/A         39  36  89  CALM    30.16R
$$

ORZ506-140810-
OCHOCO AND JOHN DAY HIGHLANDS

CITY            SKY/WX      TMP DP  RH  WIND    PRES   REMARKS
#HORSE RIDGE DO N/A         44  33  65  W8      N/A
#KEYES SMT DOT  N/A         38  34  85  SW25G40 N/A    WCI 27
#PAULINA SCHOOL N/A         48  23  37  N1      30.14R
#PINE MTN OBS   N/A         33  31  92  CALM    N/A
#PRAIRIE CITY   N/A         40  36  85  CALM    30.15F
#SENECA         N/A         34  N/A N/A CALM    N/A
#SENECA 9NW     N/A         33  32  96  CALM    30.27S
$$

ORZ049-140810-
GRANDE RONDE VALLEY

CITY            SKY/WX      TMP DP  RH  WIND    PRES   REMARKS
LA GRANDE       CLOUDY      39  32  76  S8      30.19R
#COVE           N/A         38  38  100 CALM    30.20S
#COVE SCHOOL    N/A         38  36  92  CALM    30.19R
#COVE 6NW       N/A         39  31  73  S8      30.26S
#ELGIN 3N       N/A         38  32  79  S5      30.14R
#ELGIN 1E       N/A         38  34  85  CALM    N/A
#IMBLER SCHOOL  N/A         37  34  89  SW2     30.13R
#ISLAND CITY 4N N/A         46  45  96  CALM    30.19F
#LADD CYN DOT   N/A         39  35  85  SE8     N/A
#UNION 1S       N/A         39  36  89  CALM    30.15R
$$

ORZ050-140810-
WALLOWA COUNTY

CITY            SKY/WX      TMP DP  RH  WIND    PRES   REMARKS
#ENTERPRISE AP  N/A         34  31  89  CALM    30.06S
#ENTERPRISE HS  N/A         35  33  92  CALM    30.14S
#IMNAHA SCHOOL  N/A         47  34  60  S9      30.14S
#IMNAHA 10S     N/A         42  30  62  CALM    30.13
#JOSEPH 3N      N/A         33  28  82  CALM    30.14F
#JOSEPH 3W      N/A         N/A N/A N/A S3      29.96S
#LOSTINE        N/A         34  32  92  CALM    30.02R
#MT HOWARD 8000 N/A         28  24  85  W7G28   30.04F
#PROMISE 1S     N/A         34  32  92  E8      30.29S
#WALLOWA SCHOOL N/A         35  33  92  CALM    30.13R



$$



USA.gov is the U.S. government's official web portal to all federal, state and local government web resources and services.